Location: Barrio de Lie�as
(42.2291°N, 0.3947°W)
Time: 14:49:00
(UTC+00:00)

Daily predictions for brighter satellites

Satellite Brightness Start Highest point End
(mag) Time Altitude Azimuth Time Altitude Azimuth Time Altitude Azimuth
Cosmos 2278 Rocket 2.2 16:52:52 10° NNW 16:58:31 65° ENE 17:04:07 10° SE
Cosmos 2360 Rocket 4.3 16:54:40 10° W 16:58:54 21° NW 17:03:08 10° N
COBE Rocket 4.3 16:57:15 10° NNE 17:01:39 41° E 17:06:06 10° SSE
SL-4 R/B 3.3 17:00:16 10° WNW 17:03:23 25° NNW 17:06:41 10° NE
Envisat 3.8 17:01:28 10° SE 17:05:43 28° ENE 17:10:00 10° N
Aureole 1 Rocket 3.4 17:03:26 10° SSE 17:05:51 23° ESE 17:08:23 10° NE
Cosmos 1862 Rocket 3.5 17:04:52 10° S 17:09:11 72° E 17:13:35 10° NNE
CZ-4B R/B 4.0 17:06:56 10° NNW 17:09:36 21° WNW 17:12:15 10° WSW
CZ-4 R/B 3.0 17:09:41 10° E 17:11:30 13° ENE 17:13:18 10° NE
SL-16 R/B 3.1 17:07:44 10° SSE 17:12:29 29° ESE 17:17:17 10° NE
ATLAS 3B R/B 4.4 17:07:33 10° NW 17:13:40 38° WSW 17:19:55 10° S
Cosmos 1743 4.4 17:12:29 10° NE 17:14:33 14° ENE 17:16:38 10° ESE
Cosmos 1689 Rocket 4.3 17:12:04 10° NNW 17:14:39 25° WNW 17:17:11 10° SW
NOSS 7 (D) 4.3 17:12:04 10° NNW 17:15:04 53° NE 17:18:27 10° SE
USA 267 3.3 17:08:50 10° ESE 17:15:18 67° NE 17:21:48 10° NW
Cosmos 1992 Rocket 3.9 17:13:30 10° NNW 17:18:45 76° ENE 17:23:58 10° SSE
Okean O Rocket 3.1 17:14:58 10° S 17:19:03 41° W 17:23:10 10° NNW
YAOGAN 6 4.0 17:16:49 10° ESE 17:19:16 18° ENE 17:21:44 10° NNE
Cosmos 2237 Rocket 2.3 17:16:20 10° SSW 17:22:02 89° WNW 17:27:46 10° NNE
Cosmos 2333 Rocket 3.6 17:17:56 10° WSW 17:23:09 35° WNW 17:28:26 10° N
Cosmos 1812 3.1 17:20:41 10° SSW 17:24:31 67° W 17:28:23 10° N
IRS-1C Rocket 4.1 17:19:39 10° SSE 17:24:55 85° ENE 17:30:14 10° NNW
BREEZE-M DEB (TANK) 2.5 17:20:04 10° WNW 17:25:31 48° NNE 17:27:32 15° E
CORIOLIS 4.2 17:20:16 10° SSE 17:25:39 67° ENE 17:31:04 10° N
Cosmos 1092 Rocket 4.1 17:19:57 10° SSE 17:26:04 55° E 17:32:09 10° NNE
Cosmos 2242 Rocket 3.6 17:21:41 10° S 17:26:12 69° E 17:30:45 10° NNE
Shenzhou-11 Module 1.7 17:24:54 10° W 17:27:39 79° SSW 17:29:54 14° ESE
OAO 2 Rocket 4.5 17:25:51 10° WSW 17:30:24 36° S 17:35:02 10° ESE
Radarsat 4.5 17:26:48 10° SSE 17:31:59 79° ENE 17:37:12 10° N
Cosmos 2219 Rocket 3.8 17:28:37 10° WSW 17:33:29 30° NW 17:38:24 10° N
Cosmos 1500 4.2 17:33:50 10° NNW 17:37:29 48° W 17:41:04 10° SSW
Okean-O 2.6 17:34:39 10° SSE 17:39:00 59° ENE 17:43:22 10° N
BREEZE-M DEB (TANK) 2.7 17:34:44 10° WNW 17:39:40 49° N 17:41:21 22° ENE
FALCON 9 DEB 3.5 17:41:00 10° WSW 17:44:26 58° NNW 17:46:30 22° NE
Cosmos 1943 Rocket 3.4 17:40:30 10° N 17:44:29 19° NE 17:45:18 19° ENE
Cosmos 1908 Rocket 3.4 17:41:57 10° N 17:46:21 79° E 17:50:42 10° S
YAOGAN 3 4.5 17:44:30 10° SSE 17:48:50 76° ENE 17:53:11 10° N
COSMO-SKYMED 1 2.8 17:47:53 12° NNE 17:51:49 48° E 17:56:00 10° S
CSL-04 Rocket 4.1 17:48:55 10° SE 17:53:40 36° ENE 17:58:27 10° N
SMAP 3.9 17:49:42 10° S 17:54:14 53° W 17:58:48 10° NNW
Okean 1-7 2.9 17:51:18 10° S 17:55:36 68° E 17:59:56 10° NNE
YAOGAN 1 3.2 17:52:04 10° SE 17:55:55 33° ENE 17:59:48 10° N
H-2A R/B 3.8 17:52:33 10° S 17:56:06 45° W 17:59:39 10° NNW
CZ-4C R/B 4.0 17:54:21 10° SE 17:54:43 11° ESE 17:54:43 11° ESE
OAO 3 Rocket 4.4 17:54:11 10° WSW 17:58:26 34° S 18:01:41 16° ESE
Cosmos 1441 Rocket 3.0 17:55:42 10° N 17:59:30 72° E 18:03:15 10° SSE
Cosmos 2297 3.6 17:58:00 10° NNW 18:03:42 67° ENE 18:09:19 10° SSE
Cosmos 1428 Rocket 4.4 17:59:13 10° S 18:05:18 69° E 18:11:31 10° NNE
Cosmos 1190 Rocket 3.9 18:03:06 10° S 18:08:14 66° ESE 18:11:37 22° NNE
Cosmos 676 Rocket 4.4 18:05:39 10° S 18:10:26 40° ESE 18:11:47 33° ENE
STARLINK-52 3.9 18:07:26 10° WSW 18:10:49 45° NNW 18:11:47 35° NNE
STARLINK-43 3.6 18:07:38 10° SSW 18:11:13 47° SE 18:11:41 44° ESE
CSL-04 Debris 4.3 18:06:04 10° SE 18:11:20 52° ENE 18:16:36 10° N
Cosmos 1553 Rocket 4.1 18:07:09 10° N 18:13:23 54° ENE 18:19:39 10° SSE
SKYMED 3 4.5 18:12:19 14° NNE 18:16:00 89° SE 18:20:20 10° SSW
Genesis I 3.1 18:12:22 10° NW 18:16:15 84° WSW 18:18:59 18° SSE
ISS -0.9 18:14:08 10° W 18:16:32 18° SW 18:18:56 10° S
Cosmos 1954 Rocket 4.2 18:13:49 10° S 18:18:41 44° ESE 18:19:42 40° ENE
STARLINK-29 4.2 18:15:44 10° W 18:19:02 36° NNW 18:19:41 33° N
Cosmos 1666 4.3 18:18:15 10° NNW 18:21:41 35° W 18:25:05 10° SSW
Meteor 1-18 Rocket 4.1 18:16:24 10° S 18:22:07 79° E 18:27:35 11° NNE
Cosmos 2026 Rocket 4.1 18:18:11 10° SSW 18:24:13 75° W 18:30:19 10° N
USA 215 4.3 18:20:48 18° NNE 18:24:43 34° NNW 18:30:26 10° W
Cosmos 921 Rocket 3.2 18:22:37 10° NNW 18:26:54 72° WSW 18:31:14 10° S
Cosmos 489 Rocket 4.5 18:21:01 10° NNW 18:27:19 60° ENE 18:33:35 10° SSE
Cosmos 614 Rocket 4.2 18:24:56 10° SSW 18:29:59 66° WNW 18:33:24 21° N
Abrixas rocket 4.0 18:28:00 10° SSW 18:29:25 21° S 18:29:25 21° S
Meteor 2-9 Rocket 4.2 18:26:48 10° N 18:32:36 61° ENE 18:38:18 10° SSE
Lacrosse 5 3.1 18:28:37 10° S 18:31:51 25° SE 18:31:51 25° SE
NOAA 11 4.1 18:29:42 10° SSE 18:35:04 64° ENE 18:40:31 10° N
Lacrosse 5 rocket 3.6 18:33:49 10° NW 18:35:56 14° NNW 18:36:32 13° N
SKYMED 2 4.4 18:36:33 15° N 18:39:55 49° WNW 18:44:06 10° SSW
Okean 3 4.3 18:37:15 10° S 18:39:54 37° SSE 18:39:54 37° SSE
Okean 1 4.2 18:39:48 10° SSW 18:43:38 46° W 18:45:30 26° NNW
SL-4 R/B 3.9 18:40:51 10° NW 18:42:49 20° NNW 18:42:49 20° NNW
Cosmos 1417 Rocket 4.3 18:38:38 10° N 18:44:48 89° E 18:50:57 10° S
Cosmos 2221 Rocket 3.5 18:40:36 10° S 18:45:05 83° W 18:45:40 66° N
CZ-4 R/B 2.1 18:42:19 10° S 18:46:07 49° W 18:49:53 10° NNW
Sich 1 Rocket 4.3 18:43:10 10° NNW 18:47:28 53° W 18:51:42 10° S
Cosmos 1140 Rocket 3.7 18:44:29 10° SSW 18:49:35 68° WNW 18:51:25 39° N
Cosmos 1743 4.0 18:46:55 10° NNW 18:50:33 40° W 18:54:12 10° SSW
Cosmos 2369 Rocket 3.0 18:49:35 10° NNW 18:53:04 35° N 18:53:04 35° N
SL-16 R/B 3.2 18:51:01 10° SW 18:56:22 43° WNW 18:59:40 22° N
Gbstr 26 Del rocket 4.4 18:55:33 10° SSW 19:01:38 44° SSE 19:01:38 44° SSE
Cosmos 1655 Rocket 4.0 18:56:40 10° S 19:02:59 79° W 19:07:35 20° N
Cosmos 1603 4.0 18:57:26 10° SSW 19:02:00 55° SSE 19:02:00 55° SSE
NOSS 3-1 (C) 4.3 18:56:59 10° NNW 19:03:58 48° NE 19:03:58 48° NE
Cosmos 1241 Rocket 4.4 18:58:27 10° SSW 19:04:51 85° WNW 19:05:54 65° NNE
USA 229 DEB 4.1 19:06:22 10° NNW 19:12:26 50° NNE 19:12:26 50° NNE
USA 229 4.1 19:06:29 10° NNW 19:12:30 49° NNE 19:12:30 49° NNE
Meteor 2-4 Rocket 3.8 19:10:36 10° SSW 19:16:29 77° W 19:16:41 76° WNW
Cosmos 1867 4.1 19:16:34 10° NW 19:21:50 57° WSW 19:21:50 57° WSW
Cosmos 1943 Rocket 3.1 19:23:13 10° NNW 19:26:54 42° NW 19:26:54 42° NW
Cosmos 2344 4.4 19:20:21 10° NNW 19:30:02 63° NE 19:31:31 59° E
CZ-3B R/B 4.1 19:29:29 10° SSW 19:32:32 19° S 19:32:32 19° S
CZ-4C R/B 4.0 19:38:30 10° SW 19:39:57 20° SW 19:39:57 20° SW
